Temp
62 62 62 62 62 62 62 61 61 61 61 61 61 61 60 60 60 61 61 61 61 61 61 61 61 61 60 57 59 70 68 69 72 71 66 62 61 61 55 62 63 59 61 64 67 67 67
62 63 62 62 61 61 61 61 60 60 61 61 60 60 60 60 60 60 61 60 61 61 62 61 61 61 59 55 68 72 70 68 69 67 66 66 63 66 61 61 59 64 63 63 65 64 65
62 62 61 61 61 61 61 60 60 60 60 60 60 59 59 59 60 60 60 60 60 62 62 61 61 65 61 54 71 71 70 67 69 67 63 68 68 62 63 57 63 60 53 58 59 61 59
62 61 61 61 60 60 60 60 60 60 60 60 59 59 59 59 59 60 59 59 60 62 62 62 62 64 55 68 72 68 70 67 70 69 67 69 68 62 59 62 58 53 53 46 58 62 61
61 61 60 60 60 60 60 60 59 59 59 59 59 58 58 59 58 59 59 59 59 60 62 63 63 60 52 68 61 66 68 62 64 67 67 66 61 54 53 47 42 47 42 47 53 63 60
60 60 60 60 60 60 60 59 59 59 59 58 58 58 58 58 58 58 59 58 59 63 64 67 67 58 57 52 60 63 67 66 61 61 59 57 53 45 46 42 32 42 44 49 49 58 59
60 60 59 59 59 59 59 59 59 59 58 58 57 57 57 58 58 57 61 63 58 57 56 48 50 52 54 59 63 59 62 62 61 59 50 54 40 36 41 43 42 38 36 38 47 53 48
59 59 59 59 59 59 58 58 58 58 58 57 57 57 57 57 57 59 61 52 48 48 46 53 53 55 58 59 51 55 61 51 51 45 51 49 43 49 45 41 34 33 32 34 39 47 46
58 59 58 59 58 58 58 58 58 58 57 57 56 56 57 57 56 59 54 49 55 54 48 48 52 51 52 56 48 49 54 50 46 43 45 40 46 48 44 41 37 38 33 34 30 38 45
58 58 58 58 57 57 57 57 57 57 57 56 56 56 56 56 57 58 53 55 56 56 43 41 45 48 52 54 46 56 56 49 46 40 41 42 46 42 40 38 36 30 42 38 36 33 29
58 58 57 57 57 57 57 57 57 57 56 56 55 56 56 56 57 55 53 56 56 50 32 42 44 57 54 46 47 47 57 49 40 40 41 37 39 37 36 37 39 32 41 37 36 33 33
57 57 56 56 56 56 56 56 56 56 56 55 55 55 56 58 62 55 56 54 50 38 25 36 44 42 43 45 46 48 48 53 49 41 43 41 47 42 40 42 42 43 38 38 38 34 22
57 56 56 56 56 56 55 56 56 56 55 55 54 53 57 60 51 57 54 51 42 33 43 33 34 40 40 37 39 40 39 39 32 25 28 36 38 44 43 35 41 38 31 20 21 23 21
56 56 55 55 55 55 55 55 55 55 55 54 53 54 57 60 59 56 53 48 30 34 33 40 38 39 34 38 36 37 37 34 38 32 27 23 22 36 41 36 31 32 31 19 9 16 19
56 55 55 55 54 54 55 55 55 55 54 53 52 60 57 58 58 56 51 35 30 32 35 33 36 32 33 36 35 35 35 33 34 34 21 22 23 37 40 41 38 31 27 33 22 26 21
55 55 55 54 54 54 54 54 54 54 54 52 57 57 53 57 57 58 46 30 33 37 37 37 28 32 27 31 30 32 32 37 32 36 36 28 17 33 38 41 39 33 35 22 22 11 10
55 55 54 53 53 53 53 54 54 54 53 52 56 52 53 57 59 48 34 32 34 40 39 33 31 30 31 29 30 30 30 35 34 33 35 32 25 27 35 28 26 29 21 23 24 22 13
55 55 53 53 53 52 53 53 53 53 52 54 53 44 53 56 43 41 33 34 36 37 41 36 36 34 31 30 27 29 29 32 34 34 26 32 24 19 26 28 28 23 15 17 14 16 18
55 54 53 52 52 52 52 53 53 53 50 53 46 45 54 55 36 34 36 34 36 34 35 34 32 34 33 29 23 28 31 37 35 31 27 27 23 16 17 21 28 16 16 15 15 13 12
54 54 53 52 52 52 52 52 52 52 51 53 48 39 44 46 43 36 32 30 30 37 35 36 33 33 28 26 31 24 28 32 32 32 31 29 20 14 11 11 15 9 11 13 12 11 8
54 53 53 52 52 52 52 52 52 52 50 51 44 34 38 34 34 34 33 29 27 26 34 36 30 28 23 17 21 24 26 25 30 30 28 22 17 13 11 11 11 8 7 7 4 6 4
53 53 53 52 51 52 51 51 51 51 50 47 37 35 39 34 34 32 29 25 25 27 27 27 23 24 27 19 19 13 19 21 17 22 21 19 16 13 9 10 9 2 6 7 4 4 4
53 53 52 51 51 51 50 50 50 50 50 45 44 45 40 32 32 29 26 25 24 27 29 29 25 22 21 22 24 24 25 21 16 13 11 13 13 14 11 11 10 6 -1 3 4 3 2
53 52 52 51 50 50 50 50 49 49 50 49 46 43 34 27 31 28 25 26 24 25 19 25 28 21 27 31 28 25 20 17 15 12 14 7 9 17 9 8 1 1 7 6 2 2 3
52 52 51 49 49 49 49 50 49 48 48 45 43 41 33 24 30 27 25 23 25 23 20 23 26 27 30 26 19 17 17 15 15 18 11 10 9 11 8 6 1 4 4 1 -3 1 3
52 51 49 49 48 49 49 49 48 47 46 43 40 43 35 26 22 18 22 20 20 21 25 24 28 29 28 25 22 12 9 8 10 11 20 13 13 12 9 4 -0 3 7 7 4 -3 5
51 50 49 48 49 49 49 49 48 46 45 44 37 41 34 22 22 21 22 20 20 18 19 22 19 20 28 23 16 12 12 8 6 4 3 5 5 4 5 3 3 6 6 7 -3 -0 5
50 49 48 48 49 49 49 47 46 45 43 42 34 39 36 22 20 21 20 19 20 19 20 18 19 20 21 17 18 15 13 9 7 3 1 -1 -1 5 6 3 -0 11 6 0 5 7 6
49 48 48 49 49 48 48 48 46 44 43 42 33 38 38 26 21 26 24 23 20 19 19 19 17 14 16 18 17 16 14 13 6 8 4 4 3 3 3 7 7 8 8 11 7 7 9
MSLP
1019.56 1019.48 1019.26 1018.92 1018.58 1018.22 1017.85 1017.47 1017.15 1016.76 1016.27 1015.75 1015.24 1014.74 1014.20 1013.68 1012.97 1012.34 1011.72 1011.10 1010.43 1009.80 1009.49 1009.48 1009.72 1009.98 1009.91 1008.92 1008.35 1008.48 1008.19 1007.71 1006.81 1006.40 1006.56 1006.57 1006.08 1005.72 1004.80 1003.99 1003.99 1002.77 1002.57 1002.26 1001.72 1001.34 1001.08
1019.57 1019.45 1019.27 1018.99 1018.65 1018.30 1017.94 1017.54 1017.17 1016.76 1016.30 1015.82 1015.28 1014.77 1014.20 1013.53 1012.82 1012.13 1011.45 1010.72 1010.19 1009.70 1009.19 1009.06 1009.36 1009.78 1009.28 1008.60 1009.14 1008.55 1008.11 1007.66 1006.91 1006.70 1006.29 1006.10 1005.51 1005.04 1004.34 1003.59 1003.30 1002.34 1002.00 1001.52 1001.39 1001.36 1001.33
1019.65 1019.53 1019.39 1019.09 1018.66 1018.32 1017.98 1017.58 1017.21 1016.82 1016.36 1015.79 1015.29 1014.83 1014.21 1013.57 1012.78 1011.96 1011.29 1010.61 1010.13 1009.69 1009.20 1009.21 1009.38 1009.19 1008.54 1009.47 1008.92 1008.69 1008.15 1007.61 1007.18 1006.85 1006.34 1006.03 1005.82 1005.57 1004.60 1004.33 1003.69 1003.46 1002.39 1001.79 1001.25 1001.30 1000.99
1019.72 1019.62 1019.42 1019.15 1018.77 1018.31 1018.00 1017.69 1017.28 1016.86 1016.39 1015.88 1015.29 1014.75 1014.15 1013.54 1012.76 1011.95 1011.37 1010.76 1010.35 1010.01 1009.71 1009.62 1009.57 1009.02 1008.76 1009.42 1009.17 1008.79 1008.01 1007.32 1006.95 1006.90 1006.61 1006.27 1006.14 1005.88 1005.37 1005.04 1004.15 1003.85 1002.93 1001.33 1000.41 1000.01 1000.14
1019.86 1019.75 1019.51 1019.24 1018.82 1018.39 1018.10 1017.74 1017.35 1016.91 1016.37 1015.90 1015.23 1014.64 1014.04 1013.39 1012.65 1011.85 1011.32 1010.92 1010.62 1010.31 1010.05 1009.86 1009.32 1008.77 1009.11 1009.29 1009.28 1009.23 1008.64 1007.74 1007.19 1006.58 1006.53 1006.52 1006.52 1006.34 1006.22 1005.71 1005.00 1004.28 1001.95 1001.19 999.91 999.80 1000.02
1019.99 1019.83 1019.65 1019.31 1018.92 1018.56 1018.21 1017.86 1017.46 1016.96 1016.44 1015.84 1015.11 1014.47 1013.95 1013.36 1012.60 1011.93 1011.05 1010.95 1010.73 1010.09 1009.92 1009.45 1009.20 1009.09 1010.06 1010.26 1010.14 1009.67 1008.91 1007.93 1007.24 1006.71 1006.30 1006.54 1006.67 1006.59 1006.54 1006.52 1004.53 1004.04 1002.73 1001.58 1000.19 1000.02 999.93
1020.05 1019.89 1019.75 1019.35 1019.03 1018.69 1018.40 1018.01 1017.55 1017.00 1016.46 1015.89 1015.14 1014.56 1013.85 1013.30 1012.78 1012.23 1010.85 1010.39 1011.09 1010.27 1010.78 1011.46 1011.66 1011.23 1011.24 1011.14 1010.27 1010.20 1009.49 1007.79 1007.42 1006.59 1006.17 1005.99 1006.65 1006.53 1006.86 1006.91 1006.33 1006.00 1005.17 1004.00 1002.27 1001.69 1002.29
1020.13 1019.96 1019.73 1019.49 1019.13 1018.87 1018.57 1018.15 1017.55 1017.09 1016.56 1015.97 1015.24 1014.56 1013.85 1013.44 1013.13 1012.59 1011.81 1012.23 1013.92 1014.30 1012.73 1012.38 1012.04 1011.79 1011.62 1011.28 1010.50 1010.56 1010.32 1009.21 1008.44 1007.57 1007.03 1006.57 1005.90 1006.49 1007.55 1007.81 1007.77 1007.14 1006.09 1005.18 1004.40 1003.75 1003.00
1020.19 1019.97 1019.81 1019.57 1019.29 1018.98 1018.57 1018.20 1017.75 1017.14 1016.67 1016.00 1015.29 1014.58 1013.82 1013.47 1013.10 1012.90 1013.28 1014.33 1014.50 1014.29 1012.96 1012.75 1012.49 1012.43 1012.19 1011.77 1011.42 1011.30 1011.18 1010.30 1009.28 1008.55 1008.02 1007.76 1007.03 1007.23 1007.61 1007.70 1007.64 1007.17 1006.75 1006.51 1006.40 1005.76 1004.04
1020.28 1020.05 1019.87 1019.67 1019.43 1019.01 1018.68 1018.27 1017.77 1017.25 1016.71 1016.09 1015.39 1014.69 1014.00 1013.13 1013.40 1013.24 1013.64 1014.65 1014.48 1014.26 1012.78 1013.26 1012.83 1013.36 1012.88 1011.57 1011.54 1011.79 1011.79 1011.59 1010.28 1009.77 1009.40 1008.45 1008.32 1008.32 1008.11 1008.05 1008.74 1007.91 1007.25 1007.18 1006.78 1006.53 1005.15
1020.35 1020.11 1019.95 1019.69 1019.47 1019.08 1018.75 1018.32 1017.85 1017.35 1016.75 1016.20 1015.49 1014.78 1014.37 1013.69 1013.87 1013.65 1015.03 1014.80 1014.54 1014.36 1013.39 1014.03 1013.66 1013.89 1013.11 1013.35 1013.28 1012.69 1012.11 1011.83 1011.16 1010.92 1010.48 1009.47 1009.14 1008.97 1008.49 1008.68 1008.91 1008.29 1007.84 1007.48 1006.99 1006.68 1006.69
1020.33 1020.16 1020.02 1019.80 1019.49 1019.18 1018.79 1018.40 1017.87 1017.36 1016.81 1016.17 1015.49 1015.03 1014.26 1014.10 1013.65 1014.89 1014.88 1014.73 1014.55 1013.76 1013.94 1014.43 1014.42 1014.07 1013.53 1013.58 1013.30 1013.20 1012.49 1011.95 1012.04 1011.69 1010.65 1010.15 1009.74 1009.54 1009.38 1009.44 1008.83 1008.27 1007.81 1007.02 1006.42 1006.32 1006.57
1020.31 1020.27 1020.09 1019.88 1019.56 1019.23 1018.91 1018.27 1017.85 1017.42 1016.85 1016.31 1015.72 1015.48 1014.91 1014.67 1014.86 1014.78 1014.88 1014.18 1013.47 1013.47 1014.93 1015.44 1015.38 1014.92 1014.38 1014.31 1014.09 1014.03 1013.28 1012.60 1013.27 1013.01 1012.14 1011.04 1010.12 1009.65 1009.89 1009.73 1008.96 1008.62 1008.40 1007.13 1005.84 1005.43 1006.78
1020.37 1020.27 1020.23 1019.98 1019.60 1019.27 1018.78 1018.37 1017.75 1017.28 1016.86 1016.40 1015.85 1015.56 1015.28 1014.96 1014.94 1014.72 1014.21 1013.17 1013.85 1015.83 1016.30 1016.66 1016.42 1015.83 1015.48 1015.35 1015.18 1014.90 1014.38 1013.76 1014.17 1014.88 1014.02 1012.79 1011.32 1010.51 1010.57 1010.43 1009.90 1009.36 1009.04 1008.86 1007.98 1007.32 1008.88
1020.42 1020.41 1020.33 1020.08 1019.76 1019.31 1018.89 1018.41 1017.78 1017.34 1016.88 1016.41 1015.94 1015.42 1015.24 1015.12 1014.67 1014.28 1013.36 1013.80 1016.49 1017.48 1018.03 1017.61 1016.68 1016.38 1016.28 1016.38 1016.30 1015.59 1015.12 1015.01 1015.60 1016.15 1016.21 1014.58 1012.87 1012.22 1011.02 1010.68 1010.65 1009.67 1009.60 1009.93 1009.70 1009.58 1010.35
1020.49 1020.61 1020.33 1020.25 1019.93 1019.48 1019.03 1018.46 1018.08 1017.42 1016.74 1016.40 1015.80 1015.37 1015.62 1015.69 1014.76 1013.23 1013.59 1016.32 1017.76 1018.61 1018.70 1018.49 1017.56 1017.70 1017.16 1017.02 1016.87 1016.26 1015.80 1015.82 1016.54 1016.89 1017.28 1016.19 1014.67 1012.67 1011.40 1010.91 1010.66 1011.04 1011.45 1011.17 1011.27 1011.25 1012.40
1020.61 1020.55 1020.44 1020.45 1020.05 1019.57 1019.17 1018.74 1018.20 1017.39 1016.89 1016.55 1015.86 1015.32 1016.61 1016.12 1014.86 1014.52 1015.66 1017.89 1018.86 1019.33 1019.38 1019.14 1018.83 1018.56 1018.27 1017.86 1017.75 1017.12 1016.79 1016.91 1017.59 1017.56 1017.69 1017.00 1015.77 1013.58 1012.41 1013.00 1012.93 1012.59 1013.86 1014.47 1014.17 1013.57 1014.36
1020.67 1020.41 1020.60 1020.53 1020.09 1019.62 1019.37 1018.95 1018.26 1017.62 1017.10 1016.48 1015.98 1016.21 1017.31 1016.26 1015.83 1016.81 1018.27 1019.46 1020.21 1019.77 1019.70 1019.60 1019.58 1019.26 1019.07 1019.03 1018.58 1017.88 1017.49 1017.82 1018.72 1018.72 1018.03 1017.38 1016.90 1015.28 1014.32 1015.75 1016.44 1017.07 1018.44 1018.22 1017.44 1015.97 1016.78
1020.52 1020.45 1020.68 1020.53 1020.17 1019.86 1019.48 1019.13 1018.60 1018.18 1017.92 1017.13 1016.88 1017.64 1017.76 1016.30 1016.88 1018.47 1019.80 1020.24 1020.50 1020.54 1020.30 1020.24 1020.28 1020.50 1020.79 1020.20 1019.71 1018.91 1018.58 1018.71 1019.34 1019.53 1019.13 1018.91 1017.64 1016.80 1016.84 1017.52 1017.53 1019.70 1021.14 1021.21 1020.65 1020.41 1019.93
1020.45 1020.54 1020.56 1020.45 1020.29 1020.04 1019.73 1019.42 1019.04 1018.56 1018.31 1017.83 1017.52 1017.90 1018.51 1018.55 1019.45 1019.74 1020.49 1021.11 1021.08 1021.30 1020.88 1021.24 1021.29 1021.74 1021.84 1021.39 1021.12 1020.51 1020.03 1020.16 1020.64 1020.40 1020.57 1020.04 1019.61 1019.95 1020.41 1021.34 1021.98 1022.83 1023.71 1023.53 1022.63 1022.21 1023.14
1020.50 1020.59 1020.51 1020.46 1020.30 1020.18 1019.97 1019.67 1019.29 1018.85 1018.64 1018.30 1018.45 1019.67 1020.26 1020.10 1020.83 1021.27 1021.63 1022.34 1022.49 1022.34 1022.05 1022.01 1022.14 1023.00 1023.35 1023.10 1022.64 1021.92 1022.28 1022.35 1021.69 1021.98 1021.66 1021.83 1021.11 1022.04 1023.03 1023.96 1024.54 1025.63 1026.36 1026.53 1026.16 1026.36 1026.30
1020.38 1020.51 1020.50 1020.45 1020.37 1020.24 1020.13 1019.85 1019.43 1019.08 1018.90 1018.72 1019.33 1019.84 1020.87 1021.61 1022.09 1022.34 1023.11 1023.62 1023.76 1023.70 1023.50 1023.36 1023.91 1024.46 1024.17 1024.66 1025.35 1024.85 1024.66 1024.57 1025.02 1023.87 1023.47 1023.57 1022.74 1023.26 1023.99 1025.23 1026.22 1027.25 1028.33 1028.70 1029.19 1029.42 1029.59
1020.26 1020.37 1020.47 1020.43 1020.33 1020.37 1020.29 1019.98 1019.71 1019.42 1019.06 1019.13 1020.30 1020.53 1020.73 1022.54 1022.95 1023.43 1024.36 1024.96 1024.76 1024.94 1024.62 1025.07 1025.39 1025.39 1025.25 1025.95 1026.12 1025.90 1025.72 1026.46 1027.10 1026.81 1026.10 1025.52 1024.81 1023.67 1023.18 1025.35 1026.50 1028.12 1030.51 1030.96 1031.20 1031.95 1032.04
1020.11 1020.38 1020.50 1020.46 1020.48 1020.52 1020.41 1020.18 1020.07 1019.73 1019.26 1019.15 1020.05 1020.53 1021.49 1023.20 1023.74 1024.65 1025.48 1025.90 1025.96 1025.94 1026.11 1026.03 1025.85 1026.09 1026.21 1026.54 1026.54 1026.69 1026.99 1027.31 1027.67 1027.97 1027.86 1027.14 1026.07 1024.45 1024.56 1026.04 1027.53 1030.61 1031.71 1032.36 1032.65 1033.03 1033.28
1020.13 1020.35 1020.49 1020.62 1020.66 1020.65 1020.55 1020.36 1020.50 1020.39 1020.13 1020.25 1021.07 1021.22 1022.22 1024.17 1025.07 1025.84 1026.52 1026.91 1026.72 1026.72 1026.84 1026.71 1026.65 1026.96 1026.72 1026.39 1026.25 1026.15 1026.46 1027.12 1027.53 1027.88 1028.20 1028.24 1027.22 1025.72 1025.25 1026.36 1029.21 1030.59 1032.10 1033.26 1033.68 1033.29 1033.74
1020.10 1020.29 1020.58 1020.73 1020.83 1020.78 1020.76 1020.76 1020.95 1021.08 1021.11 1021.33 1022.19 1022.34 1022.92 1024.60 1027.12 1027.92 1027.78 1028.12 1027.85 1027.55 1026.87 1027.08 1027.25 1027.27 1026.64 1025.98 1025.79 1026.32 1027.31 1028.63 1028.17 1028.13 1028.13 1028.61 1027.75 1027.00 1026.60 1027.09 1029.07 1031.29 1032.89 1033.99 1034.58 1033.68 1033.91
1020.08 1020.30 1020.65 1020.83 1020.90 1020.91 1020.95 1021.03 1021.19 1021.53 1021.47 1021.64 1023.45 1023.44 1023.84 1026.12 1028.68 1029.22 1029.13 1029.29 1029.23 1029.01 1028.51 1028.32 1028.34 1027.67 1026.77 1026.26 1026.69 1027.50 1028.36 1030.09 1030.10 1030.42 1030.42 1029.99 1029.65 1029.01 1028.66 1028.91 1030.62 1032.30 1033.48 1034.34 1034.60 1034.42 1034.00
1020.06 1020.39 1020.66 1020.84 1020.90 1020.99 1021.18 1021.53 1021.72 1021.95 1022.08 1022.22 1024.56 1024.42 1024.29 1026.88 1029.66 1030.29 1030.45 1030.52 1030.35 1030.23 1029.51 1029.58 1029.57 1028.82 1028.07 1027.74 1027.89 1028.62 1029.29 1030.77 1031.56 1032.35 1032.92 1033.18 1032.65 1031.19 1030.57 1030.44 1031.28 1032.65 1033.77 1034.13 1033.86 1033.72 1033.96
1020.11 1020.48 1020.73 1020.86 1020.96 1021.27 1021.44 1021.63 1021.99 1022.29 1022.51 1022.62 1024.35 1025.43 1025.48 1026.85 1030.13 1030.99 1031.43 1031.63 1031.57 1031.37 1031.02 1030.62 1030.39 1030.47 1030.52 1029.74 1029.68 1029.95 1030.24 1031.13 1032.23 1032.24 1033.92 1034.17 1034.75 1034.17 1033.22 1031.93 1032.16 1032.79 1032.86 1033.04 1033.59 1033.59 1033.55
Wind_Speed
10 10 11 12 13 14 15 15 15 16 17 19 19 20 20 21 22 22 22 23 22 16 11 11 9 6 6 5 5 10 16 15 11 5 15 17 19 20 27 14 23 30 27 29 27 22 24
10 11 12 12 13 14 14 15 16 17 18 19 19 19 21 22 22 22 23 24 16 14 9 2 6 8 5 2 8 14 14 10 7 8 12 15 11 18 17 24 27 15 19 25 26 25 28
9 10 11 12 13 14 14 15 16 17 18 19 20 20 20 21 22 23 25 19 12 10 8 8 11 7 2 7 10 15 13 15 9 12 14 14 17 11 7 20 22 22 29 25 25 22 20
9 10 10 12 13 13 14 15 16 17 18 19 20 20 20 20 21 23 24 11 10 9 11 9 8 2 7 5 11 19 21 14 5 8 12 13 11 18 21 18 24 21 22 23 12 20 25
8 9 10 11 12 13 14 15 17 18 19 19 20 21 20 20 19 22 21 6 7 6 5 3 5 5 5 7 17 18 20 14 14 8 9 8 8 12 10 17 17 15 25 25 23 19 11
8 9 10 11 12 13 14 15 17 18 19 20 21 21 20 20 17 21 19 3 4 2 4 2 7 3 9 15 12 21 23 20 7 11 8 10 7 9 8 10 18 18 22 23 26 18 19
7 8 9 10 11 12 14 15 16 18 19 21 22 22 20 20 14 19 15 3 3 3 16 9 8 10 14 17 4 19 22 19 15 9 11 4 4 8 15 14 19 17 17 26 29 24 17
6 7 8 9 11 12 13 15 17 18 19 20 22 22 21 19 9 15 9 7 5 3 2 6 4 12 11 17 11 19 22 12 12 13 14 12 16 8 10 10 10 12 14 16 16 19 20
5 7 7 9 10 12 14 15 16 18 20 21 22 21 19 17 4 4 13 10 5 5 2 5 6 16 17 13 14 18 20 13 12 13 14 13 18 16 14 15 15 17 13 11 10 17 14
4 5 7 9 10 12 14 16 17 18 19 21 22 18 17 22 3 6 6 11 3 4 6 6 9 9 13 9 0 15 16 9 8 11 12 10 16 16 15 16 7 14 13 14 15 10 6
3 4 6 8 10 13 15 16 18 18 19 21 20 16 12 12 5 5 9 7 3 4 4 7 6 6 10 16 12 17 15 9 10 15 8 13 12 14 12 11 13 18 14 16 17 17 17
2 4 5 7 10 12 14 17 18 19 19 21 19 13 16 2 1 7 9 1 3 6 4 5 5 14 14 17 12 16 16 7 3 17 13 16 10 5 9 15 18 14 15 20 21 17 16
2 3 4 7 9 12 15 16 18 19 20 20 15 7 10 4 8 12 5 4 6 6 7 9 10 15 13 16 16 19 18 13 11 13 15 18 12 7 4 20 17 16 17 11 12 11 10
2 2 4 6 9 11 14 17 19 20 20 20 11 5 5 6 10 7 3 6 7 4 7 12 14 12 11 16 13 14 17 11 12 14 15 13 15 14 23 15 12 21 12 6 8 13 9
3 2 3 6 9 12 14 17 20 21 21 19 8 0 10 13 12 5 7 7 6 7 7 10 13 7 10 12 10 15 13 9 11 11 12 13 12 24 18 13 14 11 11 15 12 18 17
4 2 3 6 8 11 14 18 20 21 22 16 1 1 12 18 15 7 5 6 4 5 7 8 7 5 12 13 11 14 9 8 8 12 14 9 17 14 9 15 4 9 8 7 6 7 9
5 3 5 4 8 11 14 17 20 23 22 10 1 1 12 16 8 6 6 5 4 4 7 6 7 9 12 12 14 15 7 9 10 14 13 19 9 16 18 7 11 8 5 7 8 8 8
6 5 3 3 8 11 14 17 21 23 22 5 2 2 11 10 7 5 6 3 2 6 6 3 6 7 10 16 10 13 9 10 11 14 20 13 6 12 20 15 18 20 8 7 5 8 8
7 6 2 3 7 10 13 17 20 20 15 4 4 3 7 8 5 8 6 5 3 7 6 6 5 9 13 11 9 7 10 13 17 18 8 8 5 11 4 4 9 8 14 10 8 6 4
7 6 4 3 6 9 12 15 17 19 13 4 2 1 4 6 7 6 6 5 5 4 2 7 6 8 13 8 11 10 13 11 18 11 16 10 2 5 5 6 8 6 14 16 7 4 7
8 6 4 3 5 8 11 13 15 17 11 3 3 3 4 3 6 5 5 4 5 6 5 5 5 11 10 5 12 9 9 16 13 12 11 8 3 5 8 8 13 10 10 14 15 10 5
8 6 5 3 3 7 9 11 14 15 9 3 3 4 3 5 2 6 4 4 6 6 3 6 7 11 10 4 7 12 14 9 7 12 11 11 2 3 5 8 11 15 14 7 8 9 6
8 7 6 2 3 6 8 9 10 15 5 3 2 2 4 1 3 1 3 4 4 6 1 7 6 8 4 10 12 11 2 9 6 7 9 8 6 4 1 11 7 5 11 10 3 6 6
9 8 5 3 3 4 6 7 10 13 7 4 4 4 3 4 3 4 3 4 5 3 3 7 6 3 7 10 1 4 4 4 3 6 8 6 5 4 4 6 5 4 2 4 4 2 3
10 7 6 4 3 3 3 7 9 12 12 8 3 3 3 5 3 5 5 5 1 3 2 4 4 5 9 4 4 5 6 4 6 5 9 6 4 2 4 3 3 4 4 5 4 1 2
10 8 7 6 5 4 3 9 8 11 13 8 8 5 4 6 4 3 3 4 3 3 3 1 4 7 6 3 2 4 5 6 6 13 8 7 7 3 4 5 5 5 5 2 1 4 4
11 10 8 7 7 5 9 7 7 8 10 7 6 5 6 6 4 3 1 3 2 1 2 2 6 6 6 3 3 4 4 2 4 8 9 8 6 8 7 3 3 3 2 4 4 4 1
11 10 10 9 8 9 7 9 12 13 8 5 6 5 3 5 4 3 1 2 3 1 2 4 4 2 3 3 2 2 2 3 3 0 4 4 5 4 3 4 2 6 5 5 2 3 4
12 11 11 10 10 8 8 12 8 11 12 7 6 7 8 7 5 3 3 2 2 2 2 2 3 2 3 1 1 2 2 3 1 2 4 1 2 4 3 3 2 6 7 4 4 7 7
Wind_Direction
12 14 9 3 7 4 5 5 2 357 354 353 351 349 346 343 338 334 335 334 329 336 313 278 257 241 240 207 37 342 334 330 305 217 201 209 212 221 229 241 239 243 253 260 267 270 264
18 9 9 7 7 7 4 3 360 356 355 352 351 349 346 342 337 336 336 335 334 340 342 8 184 189 234 122 340 349 335 327 294 228 221 218 231 232 258 244 252 260 271 277 262 272 262
14 13 9 6 7 6 3 2 358 355 354 353 350 347 345 343 339 339 341 340 341 1 32 105 149 188 103 61 356 1 351 321 278 266 251 239 247 248 247 261 265 275 273 270 260 256 248
18 10 10 4 7 3 3 0 357 354 353 352 349 344 344 345 342 339 347 351 8 49 65 106 181 261 76 32 349 2 357 347 334 274 265 269 258 258 255 271 280 268 263 264 252 248 239
15 11 10 3 3 4 1 358 355 352 352 350 349 345 344 347 345 340 347 344 8 6 16 176 235 294 64 18 5 352 355 340 315 278 255 250 274 245 250 249 263 256 262 261 265 241 235
14 11 5 2 6 2 358 356 353 352 350 348 349 347 343 347 348 344 340 292 344 294 229 221 22 170 44 358 344 2 353 341 322 311 262 224 223 232 245 235 250 260 250 253 260 255 257
16 11 5 3 4 1 357 354 352 350 350 350 347 343 343 349 356 350 343 218 306 160 40 60 39 39 338 348 280 15 352 333 351 300 289 301 313 272 277 284 278 289 280 282 285 280 296
14 9 4 3 3 0 355 353 353 350 350 348 347 345 342 348 7 2 21 56 44 318 99 48 68 32 10 343 1 15 357 3 334 328 309 276 257 315 317 314 331 327 314 298 280 283 286
10 5 5 4 3 357 356 353 352 354 350 349 349 347 339 345 307 24 57 30 317 192 284 71 40 27 1 326 34 11 3 337 335 327 339 304 297 345 322 316 328 302 296 309 324 326 281
3 12 7 7 358 358 354 353 354 354 353 353 350 350 350 330 252 340 53 359 315 226 227 33 18 31 355 334 129 5 357 345 326 335 331 288 353 321 311 288 328 308 320 311 299 298 279
357 8 20 4 0 358 354 353 353 355 356 354 351 352 4 15 332 27 335 334 187 244 262 20 28 317 347 27 328 3 345 347 336 338 296 329 331 321 310 357 327 304 301 293 283 276 274
349 26 9 3 5 359 355 352 351 355 357 355 354 352 331 6 360 22 340 251 203 233 49 17 6 349 350 16 13 353 354 24 320 326 311 330 297 281 345 334 311 300 303 296 273 254 249
87 38 9 7 7 1 354 352 353 355 359 354 354 9 27 351 337 334 323 213 250 32 352 3 340 344 348 4 0 3 350 2 16 339 343 314 325 317 9 334 322 343 320 296 290 239 241
109 64 15 7 11 3 1 354 355 356 357 355 359 338 21 27 340 328 250 242 55 25 15 352 340 331 1 3 353 347 342 348 17 4 320 346 317 343 340 311 304 309 295 292 294 305 307
149 91 24 12 10 12 4 357 356 353 354 354 325 243 17 349 343 304 274 44 27 15 355 335 317 342 353 2 334 341 345 7 16 11 354 309 306 317 300 322 300 309 295 321 282 268 273
156 113 44 14 14 14 7 2 354 353 353 351 359 217 18 344 327 304 58 85 81 23 334 322 348 346 331 342 337 341 339 6 358 3 353 313 305 301 297 306 274 300 13 332 341 309 318
160 149 51 18 21 19 11 2 358 357 352 345 288 151 1 342 320 43 63 72 72 18 2 326 333 311 330 330 325 320 316 15 7 339 326 312 278 293 303 3 333 344 36 351 301 277 298
180 121 70 32 32 22 10 3 4 2 347 323 6 39 353 320 46 53 57 23 337 5 348 334 295 306 334 329 310 305 327 356 15 342 325 322 297 291 306 103 77 64 19 355 294 323 320
183 133 127 46 39 25 10 6 5 2 7 320 62 36 8 330 67 85 112 79 47 1 356 5 314 349 357 319 317 318 339 351 3 340 324 338 271 300 162 152 74 51 14 348 279 263 283
178 168 145 77 40 22 12 6 360 4 3 314 105 105 64 43 45 88 98 48 24 6 360 357 317 360 348 329 324 296 327 348 333 348 334 315 57 20 327 357 318 22 16 12 342 295 346
182 183 153 97 35 15 12 1 2 4 357 294 24 77 354 71 61 81 74 13 13 5 12 351 342 12 346 298 334 349 343 335 336 5 347 9 342 84 74 67 75 60 31 24 41 11 355
184 183 156 119 21 13 5 4 5 4 332 57 118 139 77 94 79 89 22 22 4 353 344 339 349 340 337 31 348 304 313 325 35 319 358 347 335 127 166 132 106 77 34 34 31 8 68
183 178 162 129 14 19 9 4 17 6 322 98 107 84 109 56 115 155 69 341 336 352 289 66 332 332 8 1 326 312 339 75 70 8 342 339 313 224 185 175 239 199 15 9 36 26 328
167 155 158 120 47 29 27 30 35 30 44 99 94 108 113 102 92 65 30 336 330 350 279 314 354 11 25 340 180 97 109 138 96 51 29 329 302 303 81 179 242 72 42 311 331 282 352
170 162 138 126 109 75 53 75 59 58 67 81 58 105 109 111 92 130 20 349 72 54 249 271 6 349 320 290 247 237 196 216 179 47 41 32 303 325 293 34 98 167 24 346 357 233 202
167 156 146 145 133 123 119 115 94 88 93 87 56 57 91 131 62 3 335 33 13 347 189 170 9 334 349 262 311 349 16 329 321 342 66 11 339 348 14 321 352 30 31 120 326 244 181
169 157 156 150 147 155 114 109 126 98 92 91 68 36 89 102 58 347 354 355 314 228 278 330 350 353 337 27 49 8 50 325 328 341 340 344 353 22 9 16 143 100 109 123 282 50 275
165 160 161 159 161 131 131 119 117 114 100 77 70 23 90 89 76 18 14 243 169 218 339 30 230 112 5 69 5 58 344 53 254 38 346 314 325 6 291 339 336 151 161 231 61 235 260
164 164 164 164 140 135 139 145 128 121 111 104 91 64 64 74 95 93 80 51 315 300 287 57 88 86 53 171 102 159 159 194 324 21 167 236 292 310 279 336 122 200 255 253 221 258 267